Location: Zagreb
(45.8000°N, 16.0000°E)
Time: 14:55:16
(UTC+02:00)

Transit 2A - Pass Details

Date: 13 August 2022
Orbit: 601 x 956 km, 66.7° (Epoch: 25 September)

Event Time Altitude Azimuth Distance (km) Brightness Sun altitude
Rises 21:37:56 0° 317° (NW) 2,863 10.9 -14.4°
Reaches altitude 10° 21:40:24 10° 305° (NW) 1,969 9.5 -14.7°
Maximum altitude 21:44:05 27° 247° (WSW) 1,218 7.3 -15.2°
Drops below altitude 10° 21:47:56 10° 190° (S) 2,053 7.9 -15.7°
Enters shadow 21:48:16 - 188° (S) 2,171 8.0 -15.7°
Sets 21:50:34 0° 179° (S) 3,012 - -16.0°
